Powrót do katalogu

PEGASUS DEB

AktywnyPO
NORAD 24091·DEBRIS·🇺🇸 United States

Wystrzelony May 19, 1994 z Vandenberg Space Force Base

Loading…

Następne Przeloty (najbliższe 24 godziny)

TLE

ŚwieżeSource: Space-Track

Epoka: Sep 14, 2026, 08:12 UTC

1 24091U 94029EN  26257.34187597  .00002488  00000-0  15604-3 0  9997
2 24091  81.9877 283.2987 0058384 246.5154 125.1221 15.07477460643729

Śledź PEGASUS DEB w czasie rzeczywistym z AllMySat

Download on the App Store